Weather History for KBYI - September, 2013

Change the Weather History Date:

Saturday, September 7, 2013

  Actual Average Record
Temperature  
Mean Temperature 66 °F 62 °F  
Max Temperature 79 °F 78 °F 96 °F (1979)
Min Temperature 52 °F 46 °F 33 °F (2000)
Degree Days  
Heating Degree Days 0 4  
Month to date heating degree days 0 25  
Since 1 July heating degree days 0 82  
Cooling Degree Days 1 1  
Month to date cooling degree days 38 10  
Year to date cooling degree days 626 354  
Growing Degree Days 16 (Base 50)    
Moisture  
Dew Point 51 °F    
Average Humidity 59    
Maximum Humidity 83    
Minimum Humidity 35    
Precipitation  
Precipitation 0.49 in 0.01 in 0.49 in (2013)
Month to date precipitation 0.86 0.11  
Year to date precipitation 3.56 6.87  
Sea Level Pressure  
Sea Level Pressure 30.04 in    
Wind  
Wind Speed 5 mph (South)    
Max Wind Speed 25 mph    
Max Gust Speed 35 mph    
Visibility 8 miles    
Events Rain , Thunderstorm    
T = Trace of Precipitation, MM = Missing Value Source: NWS Daily Summary

Daily Weather History Graph

Daily Weather History Graph

Search for Another Location

Airport or City:

Trip Planner

Search our weather history database for the weather conditions in past years. The results will help you decide how hot, cold, wet, or windy it might be!

Date:

Astronomy

Sep. 07, 2013 Rise Set
Actual Time 7:06 AM MDT 7:58 PM MDT
Civil Twilight 6:38 AM MDT 8:26 PM MDT
Nautical Twilight 6:04 AM MDT 9:00 PM MDT
Astronomical Twilight 5:28 AM MDT 9:36 PM MDT
Moon 9:29 AM MDT (9/7) 8:54 PM MDT (9/7)
Length of Visible Light 13h 48m
Length of Day
12h 51m
Waxing Crescent, 5% of the Moon is Illuminated
Sep 7
Waxing Crescent
Sep 12
First Quarter
Sep 19
Full
Sep 26
Last Quarter
Oct 4
New

Hourly Weather History & Observations

Time (MDT) Temp. Dew Point Humidity Pressure Visibility Wind Dir Wind Speed Gust Speed Precip Events Conditions
12:53 AM 63.0 °F 44.1 °F 50% 30.00 in 10.0 mi West 9.2 mph - N/A   Clear
1:53 AM 63.0 °F 43.0 °F 48% 30.01 in 10.0 mi West 5.8 mph - N/A   Clear
2:53 AM 59.0 °F 45.0 °F 60% 30.02 in 10.0 mi SSW 5.8 mph - N/A   Clear
3:53 AM 55.9 °F 45.0 °F 67% 30.03 in 10.0 mi South 3.5 mph - N/A   Clear
4:53 AM 54.0 °F 46.9 °F 77% 30.04 in 10.0 mi Calm Calm - N/A   Clear
5:53 AM 54.0 °F 48.0 °F 80% 30.04 in 10.0 mi Calm Calm - N/A   Clear
6:53 AM 53.1 °F 46.9 °F 80% 30.05 in 10.0 mi Calm Calm - N/A   Clear
7:53 AM 53.1 °F 48.0 °F 83% 30.07 in 10.0 mi Calm Calm - N/A   Clear
8:53 AM 57.9 °F 51.1 °F 78% 30.07 in 10.0 mi Calm Calm - N/A   Clear
9:53 AM 61.0 °F 46.9 °F 60% 30.08 in 10.0 mi Calm Calm - N/A   Clear
10:53 AM 64.0 °F 46.0 °F 52% 30.07 in 10.0 mi Calm Calm - N/A   Clear
11:53 AM 64.9 °F 45.0 °F 48% 30.07 in 10.0 mi Calm Calm - N/A   Scattered Clouds
12:53 PM 69.1 °F 46.9 °F 45% 30.05 in 10.0 mi Calm Calm - N/A   Clear
1:53 PM 72.0 °F 48.0 °F 43% 30.01 in 10.0 mi Variable 3.5 mph - N/A   Clear
2:53 PM 75.0 °F 48.0 °F 38% 29.99 in 10.0 mi ENE 6.9 mph - N/A   Clear
3:53 PM 78.1 °F 48.0 °F 35% 29.95 in 10.0 mi NE 8.1 mph - N/A   Clear
4:53 PM 78.1 °F 53.1 °F 42% 29.92 in 10.0 mi NE 10.4 mph - N/A   Clear
5:53 PM 75.0 °F 55.9 °F 51% 29.93 in 10.0 mi North 5.8 mph - N/A   Mostly Cloudy
6:05 PM 73.4 °F 57.2 °F 57% 30.04 in 10.0 mi WNW 9.2 mph - 0.00 in Rain , Thunderstorm Light Thunderstorms and Rain
6:18 PM 66.2 °F 53.6 °F 64% 30.07 in 2.5 mi WNW 18.4 mph 32.2 mph 0.07 in Rain , Thunderstorm Heavy Thunderstorms and Rain
6:33 PM 64.4 °F 57.2 °F 77% 30.08 in 5.0 mi SW 21.9 mph 27.6 mph 0.15 in Rain , Thunderstorm Thunderstorms and Rain
6:41 PM 60.8 °F 57.2 °F 88% 30.11 in 1.8 mi SSW 17.3 mph 27.6 mph 0.21 in Rain , Thunderstorm Heavy Thunderstorms and Rain
6:53 PM 61.0 °F 57.0 °F 87% 30.05 in 4.0 mi SSW 11.5 mph - 0.31 in Rain , Thunderstorm Heavy Thunderstorms and Rain
7:12 PM 62.6 °F 55.4 °F 77% 30.14 in 9.0 mi South 13.8 mph 21.9 mph 0.05 in Rain , Thunderstorm Rain
7:34 PM 60.8 °F 57.2 °F 88% 30.15 in 7.0 mi WSW 8.1 mph - 0.06 in Rain Light Rain
7:51 PM 60.8 °F 55.4 °F 82% 30.15 in 3.0 mi Variable 6.9 mph 21.9 mph 0.12 in Rain Rain
7:53 PM 61.0 °F 55.9 °F 83% 30.08 in 2.5 mi SE 11.5 mph 19.6 mph 0.13 in Rain Heavy Rain
8:07 PM 62.6 °F 53.6 °F 72% 30.09 in 3.0 mi ESE 23.0 mph 28.8 mph 0.05 in Rain Heavy Rain
8:19 PM 62.6 °F 53.6 °F 72% 30.05 in 10.0 mi ESE 20.7 mph 31.1 mph 0.05 in Rain Light Rain
8:53 PM 66.0 °F 51.1 °F 59% 29.96 in 10.0 mi ESE 17.3 mph 27.6 mph 0.05 in   Clear
9:53 PM 66.0 °F 52.0 °F 60% 29.97 in 10.0 mi East 12.7 mph 18.4 mph N/A   Clear
10:53 PM 63.0 °F 52.0 °F 67% 29.98 in 10.0 mi SW 5.8 mph - N/A   Clear
11:53 PM 61.0 °F 53.1 °F 75% 29.96 in 10.0 mi SSW 9.2 mph - N/A   Clear